Location: Gugi
(45.4667°N, 11.1000°E)
Time: 13:54:25
(UTC+00:00)

Cosmos 1869 - Pass Details

Date: 17 November 2019
Orbit: 529 x 554 km, 82.5° (Epoch: 13 December)

Event Time Altitude Azimuth Distance (km) Brightness Sun altitude
Rises 16:29:56 0° 180° (S) 2,684 7.1 -8.3°
Reaches altitude 10° 16:32:06 10° 177° (S) 1,793 6.1 -8.6°
Maximum altitude 16:36:00 64° 96° (E) 596 3.2 -9.3°
Drops below altitude 10° 16:39:54 10° 15° (NNE) 1,796 5.6 -9.9°
Sets 16:42:04 0° 12° (NNE) 2,689 6.6 -10.3°
